Zurück zum Katalog

FENGYUN 1C DEB

AktivSSO
NORAD 30071·DEBRIS·🇨🇳 China

Gestartet May 10, 1999 von Taiyuan Satellite Launch Center

Loading…

Nächste Überflüge (nächste 24 Stunden)

TLE

AktuellSource: Space-Track

Epoche: Sep 14, 2026, 13:46 UTC

1 30071U 99025PY  26257.57424295  .00005021  00000-0  11210-2 0  9991
2 30071  98.6653  11.6389 0034937 346.8072 141.3568 14.56887596 22353

Verfolge FENGYUN 1C DEB in Echtzeit mit AllMySat

Download on the App Store